Regional Weather Roundup
Issued by NWS

Home | Current Version | Previous Version | Text Only | Print | Product List | Glossary On
Versions: 1 2 3 4 5 6 7 8 9 10 11 12 13 14 15 16 17 18 19 20 21 22 23 24 25 26 27 28 29 30 31 32 33 34 35 36 37 38 39 40 41 42 43 44 45 46 47 48 49 50
000
ASUS43 KDTX 310410
RWRMI
MICHIGAN HOURLY REGIONAL WEATHER ROUNDUP
NATIONAL WEATHER SERVICE DETROIT/PONTIAC MI
1200 AM EDT SUN AUG 31 2014

NOTE: "FAIR" INDICATES FEW OR NO CLOUDS BELOW 12,000 FEET WITH NO
SIGNIFICANT WEATHER AND/OR OBSTRUCTION TO VISIBILITY.

MIZ047>049-052>055-059>063-066>070-074>076-081>083-310500-
SOUTHEAST LOWER MICHIGAN

CITY           SKY/WX    TMP DP  RH WIND       PRES   REMARKS
ADRIAN         CLOUDY    74  69  85 SW10G17   29.96R
ALMA           MOCLDY    71  66  85 SW6       29.89R
BAD AXE        CLOUDY    70  70  99 SW7       29.88R
CARO           CLOUDY    70  69  97 SW5       29.88R
DETROIT CITY   CLOUDY    79  68  69 SW18G29   29.92R
DETROIT        CLOUDY    76  68  76 S17       29.94R
FLINT          CLOUDY    74  68  81 SW8       29.90R
GROSSE ILE     CLOUDY    79  70  73 SW14G23   29.92S
HILLSDALE      CLOUDY    76  70  84 W5G16     29.97R
HOWELL         LGT RAIN  71  69  94 SW5       29.92S

CITY           SKY/WX    TMP DP  RH WIND       PRES   REMARKS
JACKSON        TSTM      70  66  87 SW15G22   29.94S
LAMBERTVILLE   CLOUDY    77  68  73 SW10G16   29.96S
LANSING        CLOUDY    72  66  81 SW12      29.92R
LAPEER         FAIR      72  68  88 SW9       29.91R
MASON          RAIN      71  67  87 SW7       29.93R
MONROE         CLOUDY    77  68  73 SW13      29.92S
MT. CLEMENS    CLOUDY    77  67  71 SW18G25   29.91R
PONTIAC        CLOUDY    71  68  90 W14G20    29.95R THUNDER
PORT HOPE        N/A     71  67  87 CALM      29.85R
PORT HURON     CLOUDY    75  70  83 SW8       29.91R
TRI CITIES     CLOUDY    74  69  85 SW8       29.87R
TROY           CLOUDY    77  68  74 SW15G23   29.94R
SAGINAW HB     CLOUDY    72  72 100 SW10      29.87R
$$
MIZ043>046-050>051-056>058-064>065-071>073-077>080-310500-
SOUTHWEST LOWER MICHIGAN

CITY           SKY/WX    TMP DP  RH WIND       PRES   REMARKS
BATTLE CREEK   CLOUDY    70  67  90 SW10      29.93R
BENTON HARBOR  MOCLDY    72  68  87 S5        29.91R
BIG RAPIDS     MOCLDY    68  67  97 SW7       29.88R
COLDWATER      HVY RAIN  69  67  94 SW8G18    29.96R
FREMONT        FAIR      67  66  97 SW3       29.88R
HOLLAND        PTCLDY    71  67  87 W7        29.91R
GRAND RAPIDS   MOCLDY    74  70  87 SW10      29.91R
IONIA          FAIR      71  69  93 SW8       29.90R
KALAMAZOO      CLOUDY    69  66  90 S8        29.93R
LUDINGTON      PTCLDY    64  63  95 N6        29.88R
MARSHALL       LGT RAIN  68  66  95 SW5       29.93F
MOUNT PLEASANT MOCLDY    71  65  83 SW8       29.86R
MUSKEGON       MOCLDY    72  67  84 W6        29.90R
SOUTH HAVEN    MOCLDY    73  70  89 SW3       29.92R
$$
MIZ016>042-310500-
NORTHERN LOWER MICHIGAN

CITY           SKY/WX    TMP DP  RH WIND       PRES   REMARKS
ALPENA         LGT RAIN  68  66  93 SW6       29.78S
BEAVER ISLAND  CLOUDY    62  61  96 W7        29.82R
BELLAIRE       CLOUDY    64  62  91 W6        29.83R FOG
CADILLAC       CLOUDY    67  67  98 W12       29.85R
CHARLEVOIX     CLOUDY    64  64 100 W12G20    29.85R FOG
FRANKFORT      CLOUDY    66  61  85 NW7       29.87R
GAYLORD        CLOUDY    65  62  90 W17G24    29.82S
GRAYLING       PTCLDY    69  69  99 W3        29.84R
HARBOR SPRINGS DRIZZLE   64  63  96 W6        29.80R
HOUGHTON LAKE  CLOUDY    69  66  90 SW9       29.85R
MANISTEE       CLOUDY    64  61  88 NW6       29.88R
OSCODA         PTCLDY    68  67  96 SW6       29.81R
PELLSTON       CLOUDY    65  65 100 W13       29.79R FOG
ROGERS CITY    CLOUDY    68  68 100 SW7       29.78S
TRAVERSE CITY  CLOUDY    65  62  90 W7        29.83S
$$
MIZ007>008-015-310500-
EASTERN UPPER MICHIGAN

CITY           SKY/WX    TMP DP  RH WIND       PRES   REMARKS
KINROSS        CLOUDY    66  66 100 CALM      29.76R
MACKINAC ISLAN FOG       64  64 100 SW8       29.76S VSB 1/4
NEWBERRY       CLOUDY    61  60  98 NW8       29.80R
S. S. MARIE    LGT RAIN  66  64  93 W5        29.74R FOG
MUNISING         N/A     62  59  90 NW16      29.84R
$$
MIZ004>006-011>014-085-310500-
CENTRAL UPPER MICHIGAN

CITY           SKY/WX    TMP DP  RH WIND       PRES   REMARKS
MANISTIQUE     CLOUDY    58  58  99 NW8       29.82R
ESCANABA       CLOUDY    61  55  82 NW6       29.86R
MENOMINEE      MOCLDY    61  57  88 NW3       29.87S
SAWYER-GWINN   CLOUDY    58  57  96 N10       29.88R FOG
$$
MIZ001>003-009>011-084-310500-
WESTERN UPPER MICHIGAN

CITY           SKY/WX    TMP DP  RH WIND       PRES   REMARKS
IRON MOUNTAIN  CLOUDY    60  57  89 NW7       29.88R
HOUGHTON       CLOUDY    58  55  90 NW6       29.91R
COPPER HARBOR    N/A     58  54  86 N5        29.89R
$$

ABBREVIATIONS USED IN REMARKS
   TC - TEMPERATURE IN CELSIUS
  WCI - WIND CHILL INDEX
   HX - HEAT INDEX
  VSB - VISIBILITY




USA.gov is the U.S. government's official web portal to all federal, state and local government web resources and services.